World > North America > United States > Illinois > East Brooklyn

Hourly East Brooklyn, IL Regional Weather

Feedback E-mail the Weather

Quick WX

East Brooklyn, IL Weather Maps

°F °C°F °C
East Brooklyn Weather Map
UTC Time: 8/19/2022, 11:25
Your Time:

East Brooklyn, IL Regional Weather

Expires:202208191200;;308744
ASUS43 KLOT 191110
RWRIL 

ILLINOIS REGIONAL WEATHER ROUNDUP
NATIONAL WEATHER SERVICE CHICAGO/ROMEOVILLE IL
600 AM CDT FRI AUG 19 2022

NOTE: "FAIR" INDICATES FEW OR NO CLOUDS BELOW 12,000 FEET WITH NO
SIGNIFICANT WEATHER AND/OR OBSTRUCTIONS TO VISIBILITY.

* THESE STATIONS ARE NOT UNDER NWS QUALITY CONTROL. THEY ALSO MAY NOT
  REPORT WEATHER SUCH AS PRECIPITATION OR FOG.


ILZ005-006-012>014-019>023-191200-
NORTHEAST ILLINOIS
  
CITY           SKY/WX    TMP DP  RH WIND       PRES   REMARKS
CHICAGO-OHARE  PTCLDY    68  59  73 SW7       29.96S                  
CHICAGO-MIDWAY PTCLDY    69  58  67 S7        29.97R                  
AURORA         CLEAR     62  58  86 S3        29.96S                  
JOLIET*        CLEAR     62  60  94 CALM      29.99R                  
WAUKEGAN       PTCLDY    66  59  78 SW8       29.94S                  
DUPAGE AIRPORT PTCLDY    63  58  83 S6        29.96S                  
KANKAKEE*      PTCLDY    61  57  88 CALM      30.01R                  
WHEELING       PTCLDY    69  59  70 S7        29.97S                  
MORRIS*        CLEAR     58  58 100 CALM      29.97S                  
ROMEOVILLE*    PTCLDY    61  59  94 SE8       29.99R                  
LANSING*       PTCLDY    62  62 100 CALM      29.99S                  
NORTHERLY ISL*   N/A     68  57  68 S6          N/A                   
$$


SKY/WX - Weather  TMP - Temperature  DP - Dew Point  RH - Humidity
WIND - Wind Direction/Speed PRES - Barometric Pressure VSB - Visibility
WCI - Wind Chill Index E13G22 Wind - East Wind 13 mph/Gusts of 22 mph

Trending Headlines

East Brooklyn Radar Loop



East Brooklyn Quick Facts


National Two Day Weather Forecast


E-mail the East Brooklyn Weather Forecast

Voice your opinion or tell us about page issues...